Aeroporto :
LOGIN :

Iscrizione | Disclaimer

   EN    FR    IT 

 










Sommario :    VFR   VFR Marginale   IFR   IFR Intensivo   IFR Molto Intensivo
Visibilità : 
Base nubi : 
>= 8 km
>= 3000ft
5 / 8 km
1000 / 3000 ft
1500m / 5 km
500 / 1000 ft
800 / 1500m
200 / 500 ft
< 800m
< 200 ft
Simboli :   Temporali  Nebbia  Neve Forte  Precipitazioni Forti  Vento > 20 kt
SIGMETs :   Varie  Temporali  Ghiacco  Turbolenza  Onda orograficha  Ceneri Vulcaniche






- Altitudine del aeroporto : 287 ft


LFRL - Lanveoc Poulmic

ULTIMO METAR :
  • 051700Z AUTO 33017KT 9999 FEW018/// SCT032/// BKN044/// ///TCU 07/04 Q0992

METARs OBSOLETI :
  • 051630Z AUTO 32020G30KT 300V360 9999 4500 FEW016/// SCT024/// BKN029/// ///TCU 07/05 Q0992
  • 051600Z AUTO 32021G32KT 9999 BKN029/// BKN041/// BKN100/// ///TCU 08/05 Q0991
  • 051530Z AUTO 31019KT 9999 SCT025/// SCT032/// BKN038/// ///CB 08/05 Q0991
  • 051500Z AUTO 31016KT 9999 SCT024/// BKN038/// BKN045/// ///CB 08/06 Q0991

Previsioni scadute.



MetMap, La meteo Aeronautica in un colpo d'occhio ! - Copyright ORBIFLY Dicembre 2007 - Disclaimer

ORBIFLY MET'MAP TEAM :

Programmazione e sviluppo : Alexandra Zaïnal
Concezione : Baudouin d'Aumeries
Aiuto per la programmazione : Marc-Olivier Méhu
Supporto tecnico e logistico : Manuel Goepfert
Aiuto per la traduzione : Arnaldo La Scala

Contatto : metmap@orbifly.com




FONTI E CREDITI :

   NOAA